Voltar ao catálogo

STARLINK-36180

AtivoComunicaçõesVLEO
NORAD 67114·PAYLOAD·🇺🇸 United States

Lançado Dec 15, 2025 de Cape Canaveral Space Force Station

Loading…

Próximas Passagens (próximas 24 horas)

TLE

AtualizadoSource: CelesTrak SupGP

Época: Sep 14, 2026, 15:52 UTC

1 67114C 25299N   26257.66159722  .00039838  00000+0  14432-2 0  2579
2 67114  43.0029 181.9344 0001577 260.5103 154.8514 15.27551641    12

Acompanhe STARLINK-36180 em tempo real com AllMySat

Download on the App Store